Regional Weather Roundup
Issued by NWS Green Bay, WI

Home | Current Version | Previous Version | Text Only | Print | Product List | Glossary On
Versions: 1 2 3 4 5 6 7 8 9 10 11 12 13 14 15 16 17 18 19 20 21 22 23 24 25 26 27 28 29 30 31 32 33 34 35 36 37 38 39 40 41 42 43 44 45 46 47 48 49 50
208
ASUS43 KGRB 230300
RWRGRB

NORTH-CENTRAL AND NORTHEAST WISCONSIN REGIONAL WEATHER ROUNDUP
NATIONAL WEATHER SERVICE GREEN BAY WI
1000 PM CDT TUE MAY 22 2018

WIZ005-009-010>012-018-019-230400-
NORTH CENTRAL WISCONSIN

CITY           SKY/WX    TMP DP  RH WIND       PRES   REMARKS
IRONWOOD       FAIR      57  52  83 CALM      30.06R
MANITOWISH WTR NOT AVBL
ARBOR VITAE    NOT AVBL
EAGLE RIVER    NOT AVBL
LAND O LAKES   NOT AVBL
RHINELANDER    FAIR      59  55  87 W6        30.07R
PHILLIPS       NOT AVBL
ANTIGO         NOT AVBL
TOMAHAWK       NOT AVBL
MERRILL        NOT AVBL
$$

WIZ013-073-230400-
NORTHEAST WISCONSIN

CITY           SKY/WX    TMP DP  RH WIND       PRES   REMARKS
IRON MOUNTAIN  FAIR      66  53  63 NE6       30.03R
MARINETTE      FAIR      64  53  67 SW9       30.03R
$$

WIZ017-030-035>037-045-230400-
CENTRAL WISCONSIN

CITY           SKY/WX    TMP DP  RH WIND       PRES   REMARKS
MEDFORD        NOT AVBL
WAUSAU         FAIR      63  57  81 W5        30.06R
MOSINEE        CLEAR     61  55  82 SW5       30.08R
MARSHFIELD     FAIR      59  57  93 SW6       30.08R
WISC RAPIDS    FAIR      59  56  89 SW5       30.09R
STEVENS POINT  NOT AVBL
WAUPACA        NOT AVBL
SHAWANO        NOT AVBL
CLINTONVILLE   NOT AVBL
WAUTOMA        FAIR      61  57  87 W5        30.09R
$$

WIZ038-039-048-051-230400-
FOX VALLEY

CITY           SKY/WX    TMP DP  RH WIND       PRES   REMARKS
NWS GREEN BAY  FAIR      64  59  83 S5        30.05R
APPLETON       PTCLDY    63  55  77 SW6       30.05R
OSHKOSH        FAIR      64  57  78 CALM      30.07R
FOND DU LAC    FAIR      61  57  87 SW5       30.08R
$$

WIZ022-050-052-230400-
EAST CENTRAL WISCONSIN

CITY           SKY/WX    TMP DP  RH WIND       PRES   REMARKS
EPHRAIM        NOT AVBL
WASHINGTON ISL NOT AVBL
STURGEON BAY   FAIR      60  52  74 S7        30.05R
MANITOWOC      FAIR      50  48  93 CALM      30.07R
SHEBOYGAN      FAIR      57  55  93 SW3       30.07R
$$

LMZ563-521-522-541>543-230400-
LAKESHORE

STATION/POSITION TIME  TEMP    WIND        PRES    VSBY  WAVE
                       AIR SEA DIR/SP/G                  HT/PER
                 (UTC) (F)     (DEG/KT/KT) (MB)    (MI)  (FT/S)
SHEBOYGAN LKSHOR 0200   57     200/  5/  5 1017.7R
KEWAUNEE LKSHORE 0230   53     180/  3/  4 1016.8R
NORTHPORT PIER   0240   58     180/  2/  4 1016.9R
N MID LAKE BUOY  0240   41 37  200/  4/  6 1017.3R
SISTER BAY LKSHO 0227   59     150/  6/  9   N/A
MENOMINEE LKSHOR 0230   63     180/  7/  9 1016.1R
$$




USA.gov is the U.S. government's official web portal to all federal, state and local government web resources and services.